• In Belarus
  • List of Countries
  • For 7 days
  • Water Temperature
  • Weather Map
  • Weather Widgets
  • user-avatar
    Login

    Hourly Weather Oruro

    Today, 25 January, Saturday

    Time Temperature Precipitation Wind Pressure Humidity
    00:00 +10°C° 0 mm 4 mps 477 mmHg 70%
    01:00 +8°C° 0 mm 4 mps 477 mmHg 71%
    02:00 +8°C° 0 mm 4 mps 477 mmHg 73%
    03:00 +8°C° 0 mm 3 mps 476 mmHg 74%
    04:00 +8°C° 0 mm 3 mps 476 mmHg 75%
    05:00 +7°C° 0 mm 3 mps 476 mmHg 76%
    06:00 +8°C° 0 mm 2 mps 476 mmHg 72%
    07:00 +8°C° 0 mm 2 mps 477 mmHg 67%
    08:00 +10°C° 0 mm 1 mps 478 mmHg 62%
    09:00 +12°C° 0 mm 1 mps 479 mmHg 52%
    10:00 +14°C° 0 mm 1 mps 480 mmHg 41%
    11:00 +15°C° 0 mm 1 mps 481 mmHg 30%
    12:00 +18°C° 0 mm 1 mps 481 mmHg 26%
    13:00 +18°C° 0 mm 2 mps 481 mmHg 22%
    14:00 +20°C° 0 mm 2 mps 482 mmHg 18%
    15:00 +20°C° 0 mm 4 mps 481 mmHg 20%
    16:00 +19°C° 0 mm 6 mps 481 mmHg 22%
    17:00 +18°C° 0 mm 8 mps 480 mmHg 24%
    18:00 +17°C° 0 mm 7 mps 479 mmHg 28%
    19:00 +15°C° 0 mm 7 mps 478 mmHg 33%
    20:00 +12°C° 0 mm 7 mps 478 mmHg 38%
    21:00 +11°C° 0 mm 6 mps 478 mmHg 43%
    22:00 +10°C° 0 mm 5 mps 478 mmHg 48%
    23:00 +10°C° 0 mm 5 mps 478 mmHg 53%

    Tomorrow, 26 January, Sunday

    Time Temperature Precipitation Wind Pressure Humidity
    00:00 +10°C° 0 mm 4 mps 478 mmHg 56%
    01:00 +8°C° 0 mm 4 mps 477 mmHg 58%
    02:00 +9°C° 0 mm 3 mps 477 mmHg 61%
    03:00 +8°C° 0 mm 3 mps 476 mmHg 63%
    04:00 +8°C° 0 mm 2 mps 476 mmHg 65%
    05:00 +7°C° 0 mm 2 mps 476 mmHg 67%
    06:00 +8°C° 0 mm 2 mps 477 mmHg 62%
    07:00 +8°C° 0 mm 2 mps 477 mmHg 57%
    08:00 +9°C° 0 mm 2 mps 478 mmHg 53%
    09:00 +12°C° 0 mm 2 mps 479 mmHg 45%
    10:00 +14°C° 0 mm 1 mps 480 mmHg 37%
    11:00 +16°C° 0 mm 1 mps 481 mmHg 30%
    12:00 +18°C° 0 mm 1 mps 481 mmHg 26%
    13:00 +19°C° 0 mm 1 mps 481 mmHg 23%
    14:00 +20°C° 0 mm 1 mps 482 mmHg 20%
    15:00 +19°C° 0 mm 2 mps 481 mmHg 20%
    16:00 +20°C° 0 mm 3 mps 481 mmHg 20%
    17:00 +20°C° 0 mm 3 mps 481 mmHg 21%
    18:00 +17°C° 0 mm 5 mps 480 mmHg 27%
    19:00 +16°C° 0 mm 6 mps 480 mmHg 33%
    20:00 +14°C° 0 mm 7 mps 479 mmHg 39%
    21:00 +13°C° 0 mm 6 mps 479 mmHg 43%
    22:00 +12°C° 0 mm 5 mps 479 mmHg 48%
    23:00 +11°C° 0 mm 4 mps 479 mmHg 52%

    Day after tomorrow, 27 January, Monday

    Time Temperature Precipitation Wind Pressure Humidity
    00:00 +11°C° 0 mm 4 mps 478 mmHg 55%
    01:00 +10°C° 0 mm 3 mps 478 mmHg 58%
    02:00 +10°C° 0 mm 3 mps 477 mmHg 61%
    03:00 +9°C° 0 mm 3 mps 477 mmHg 62%
    04:00 +9°C° 0 mm 2 mps 477 mmHg 64%
    05:00 +9°C° 0 mm 2 mps 476 mmHg 65%
    06:00 +9°C° 0 mm 2 mps 477 mmHg 62%
    07:00 +10°C° 0 mm 2 mps 478 mmHg 59%
    08:00 +10°C° 0 mm 2 mps 478 mmHg 56%
    09:00 +12°C° 0.1 mm 3 mps 479 mmHg 51%
    10:00 +14°C° 0.1 mm 3 mps 480 mmHg 46%
    11:00 +16°C° 0.1 mm 3 mps 481 mmHg 41%
    12:00 +17°C° 0.3 mm 3 mps 481 mmHg 38%
    13:00 +18°C° 0.3 mm 3 mps 481 mmHg 36%
    14:00 +19°C° 0.3 mm 4 mps 481 mmHg 33%
    15:00 +16°C° 0.7 mm 5 mps 479 mmHg 42%
    16:00 +14°C° 0.7 mm 6 mps 478 mmHg 50%
    17:00 +11°C° 0.7 mm 8 mps 476 mmHg 59%
    18:00 +11°C° 1.3 mm 8 mps 476 mmHg 63%
    19:00 +10°C° 1.3 mm 8 mps 477 mmHg 67%
    20:00 +9°C° 1.3 mm 7 mps 477 mmHg 71%
    21:00 +9°C° 0.6 mm 7 mps 477 mmHg 71%
    22:00 +9°C° 0.6 mm 6 mps 478 mmHg 70%
    23:00 +8°C° 0.6 mm 6 mps 478 mmHg 70%

    28 January, Tuesday

    Time Temperature Precipitation Wind Pressure Humidity
    00:00 +8°C° 0.2 mm 5 mps 478 mmHg 71%
    01:00 +8°C° 0.2 mm 4 mps 477 mmHg 71%
    02:00 +8°C° 0.2 mm 3 mps 477 mmHg 71%
    03:00 +8°C° 0.1 mm 3 mps 476 mmHg 73%
    04:00 +8°C° 0.1 mm 2 mps 476 mmHg 74%
    05:00 +9°C° 0.1 mm 1 mps 476 mmHg 75%
    06:00 +8°C° 0 mm 2 mps 476 mmHg 72%
    07:00 +9°C° 0 mm 2 mps 477 mmHg 68%
    08:00 +10°C° 0 mm 2 mps 478 mmHg 64%
    09:00 +12°C° 0.1 mm 2 mps 478 mmHg 59%
    10:00 +13°C° 0.1 mm 2 mps 479 mmHg 53%
    11:00 +15°C° 0.1 mm 2 mps 480 mmHg 48%
    12:00 +14°C° 0.5 mm 3 mps 479 mmHg 47%
    13:00 +16°C° 0.5 mm 3 mps 479 mmHg 46%
    14:00 +16°C° 0.5 mm 3 mps 478 mmHg 45%
    15:00 +16°C° 0.8 mm 3 mps 478 mmHg 46%
    16:00 +16°C° 0.8 mm 3 mps 477 mmHg 47%
    17:00 +16°C° 0.8 mm 3 mps 477 mmHg 48%
    18:00 +14°C° 0.6 mm 3 mps 476 mmHg 53%
    19:00 +13°C° 0.6 mm 4 mps 476 mmHg 59%
    20:00 +10°C° 0.6 mm 5 mps 476 mmHg 65%
    21:00 +11°C° 0.4 mm 4 mps 476 mmHg 66%
    22:00 +11°C° 0.4 mm 4 mps 477 mmHg 67%
    23:00 +10°C° 0.4 mm 3 mps 477 mmHg 68%

    29 January, Wednesday

    Time Temperature Precipitation Wind Pressure Humidity
    00:00 +9°C° 0.8 mm 3 mps 476 mmHg 72%
    01:00 +7°C° 0.8 mm 4 mps 475 mmHg 77%
    02:00 +6°C° 0.8 mm 4 mps 474 mmHg 82%
    03:00 +6°C° 0.5 mm 4 mps 474 mmHg 82%
    04:00 +6°C° 0.5 mm 4 mps 474 mmHg 82%
    05:00 +6°C° 0.5 mm 4 mps 474 mmHg 83%
    06:00 +6°C° 0.3 mm 4 mps 474 mmHg 81%
    07:00 +7°C° 0.3 mm 3 mps 475 mmHg 80%
    08:00 +7°C° 0.3 mm 3 mps 475 mmHg 78%
    09:00 +9°C° 0 mm 3 mps 476 mmHg 70%
    10:00 +11°C° 0 mm 3 mps 477 mmHg 62%
    11:00 +13°C° 0 mm 2 mps 477 mmHg 55%
    12:00 +13°C° 0.2 mm 3 mps 477 mmHg 51%
    13:00 +14°C° 0.2 mm 3 mps 477 mmHg 48%
    14:00 +16°C° 0.2 mm 3 mps 477 mmHg 44%
    15:00 +17°C° 0.4 mm 3 mps 477 mmHg 43%
    16:00 +17°C° 0.4 mm 3 mps 477 mmHg 42%
    17:00 +17°C° 0.4 mm 2 mps 477 mmHg 41%
    18:00 +16°C° 0.6 mm 3 mps 477 mmHg 47%
    19:00 +14°C° 0.6 mm 3 mps 476 mmHg 53%
    20:00 +12°C° 0.6 mm 3 mps 476 mmHg 60%
    21:00 +11°C° 2.8 mm 3 mps 476 mmHg 67%
    22:00 +10°C° 2.8 mm 3 mps 475 mmHg 75%
    23:00 +8°C° 2.8 mm 2 mps 475 mmHg 83%

    30 January, Thursday

    Time Temperature Precipitation Wind Pressure Humidity
    00:00 +8°C° 1.2 mm 2 mps 475 mmHg 82%
    01:00 +8°C° 1.2 mm 2 mps 474 mmHg 82%
    02:00 +8°C° 1.2 mm 2 mps 474 mmHg 82%
    03:00 +8°C° 0.1 mm 2 mps 474 mmHg 81%
    04:00 +9°C° 0.1 mm 1 mps 475 mmHg 79%
    05:00 +8°C° 0.1 mm 0 mps 475 mmHg 78%
    06:00 +9°C° 0.5 mm 1 mps 475 mmHg 79%
    07:00 +8°C° 0.5 mm 2 mps 475 mmHg 81%
    08:00 +8°C° 0.5 mm 3 mps 475 mmHg 82%
    09:00 +8°C° 0.2 mm 2 mps 475 mmHg 77%
    10:00 +9°C° 0.2 mm 2 mps 476 mmHg 73%
    11:00 +11°C° 0.2 mm 1 mps 476 mmHg 68%
    12:00 +12°C° 0.5 mm 1 mps 476 mmHg 64%
    13:00 +13°C° 0.5 mm 2 mps 477 mmHg 60%
    14:00 +14°C° 0.5 mm 2 mps 477 mmHg 56%
    15:00 +12°C° 1.2 mm 4 mps 476 mmHg 61%
    16:00 +10°C° 1.2 mm 5 mps 475 mmHg 67%
    17:00 +9°C° 1.2 mm 7 mps 474 mmHg 72%
    18:00 +8°C° 1 mm 6 mps 474 mmHg 73%
    19:00 +8°C° 1 mm 4 mps 474 mmHg 74%
    20:00 +9°C° 1 mm 3 mps 475 mmHg 75%
    21:00 +8°C° 0.3 mm 3 mps 475 mmHg 76%
    22:00 +8°C° 0.3 mm 3 mps 476 mmHg 77%
    23:00 +7°C° 0.3 mm 4 mps 476 mmHg 78%
    Show more